CZ-6A DEB, 54294

Orbit data source: Space-Track

CZ-6A DEB, 54294 is space debris in SSO originally from a launch on Fri, 11 Nov 2022 UTC launched from the Taiyaun Space Center, China (TSC). Debris objects in space refer to the collection of defunct objects orbiting the Earth. Examples of debris include non-operational satellites, rocket bodies, and fragments generated from explosions, collisions, or faulty payload assembly.

Loading next visibility...
Identifier
54294, 2022-151AM
Orbit
SSO
Country
Flag of CNCN / PRC
Related business
Manufacturer
SAST
Mission
Spacecraft
Bus & Motor
Unknown
Mass
Unknown
Launch date (UTC)
2022-11-11 (4 years ago)
Launch vehicle
Unknown
Launch site
Taiyaun Space Center, China (TSC)
Object type
Payload
Rocket body
Debris
Shape & HBR
Unknown shape, 0.1 m
Radar Cross Section
Medium (>0.1 m² and <1 m²)

Expand to show TLE details & history
Last TLE update: 17 hours ago

TLE from 17 hours ago
0 CZ-6A DEB
1 54294U 22151AM  26254.29131074  .00003507  00000-0  49735-3 0  9997
2 54294  98.7594   7.6072 0109696 307.2798  51.8444 14.73696511203719
Epoch: 2026-09-11T06:59Z
TLE epoch observation values (Epoch: 2026-09-11T06:59:29.247Z)
Latitude
-0.0001°
Longitude
-87.58142°
Altitude
605.172 km
Speed
7.582 km/s
True Right ascension
00h 30m 25s
True Declination
0° 00' 00"
Sunlit
Object was in full shadow at epoch
Visualization orbit readout
Latitude
Unknown
Longitude
Unknown
Altitude
Unknown
Speed
Unknown
Apparent Right ascension
Unknown
Apparent Declination
Unknown
Sunlit
N/A
Visualization observer readout
Local Sidereal Time
16:00:44
Azimuth
Unknown
Elevation
Unknown
Doppler factor
Unknown
Orbital elements
Apogee altitude
723.437 km
Perigee altitude
569.325 km
Semi-major axis
7,024.518 km
Eccentricity
0.01097
Inclination
98.7594°
RAAN
7.6072°
Arg. of periapsis
307.2798°
True anomaly
52.84123°
Mean anomaly
51.8444°
Eccentric anomaly
52.34197°
Mean motion
3.68653 °/min
Orbital period
97.65 mins
BSTAR
0.00049735
Loading maneuver chart data...
Computing Atmospheric mass density...
Loading historical data...
Loading historical data...
Loading historical data...
Loading historical data...
Loading historical data...
Loading historical data...
Loading historical data...

Documentation

Showing up to 5 results
|